Weather History for El Paso, TX

Change the Weather History Date:

Tuesday, October 14, 2014

  Actual Average Record
Temperature  
Mean Temperature 63 °F 66 °F  
Max Temperature 79 °F 79 °F 92 °F (1968)
Min Temperature 46 °F 53 °F 36 °F (1880)
Degree Days  
Heating Degree Days 2 2  
Month to date heating degree days 5 16  
Since 1 July heating degree days 5 20  
Cooling Degree Days 0 3  
Month to date cooling degree days 73 60  
Year to date cooling degree days 2608 2306  
Growing Degree Days 12 (Base 50)    
Moisture  
Dew Point 29 °F    
Average Humidity 34    
Maximum Humidity 54    
Minimum Humidity 13    
Precipitation  
Precipitation 0.00 in 0.02 in 0.40 in (1879)
Month to date precipitation 0.00 0.30  
Year to date precipitation 7.36 8.13  
Snow  
Snow 0.00 in - - ()
Month to date snowfall 0.0  
Since 1 July snowfall 0.0  
Since 1 September snowfall 0.0  
Snow Depth 0.00 in    
Sea Level Pressure  
Sea Level Pressure 30.07 in    
Wind  
Wind Speed 4 mph (NNE)    
Max Wind Speed 9 mph    
Max Gust Speed 11 mph    
Visibility 10 miles    
Events      
T = Trace of Precipitation, MM = Missing Value Source: NWS Daily Summary

Daily Weather History Graph

Daily Weather History Graph

Search for Another Location

Airport:

Trip Planner

Search our weather history database for the weather conditions in past years. The results will help you decide how hot, cold, wet, or windy it might be!

Date:

Astronomy

Oct. 14, 2014 Rise Set
Actual Time 7:08 AM MDT 6:34 PM MDT
Civil Twilight 6:43 AM MDT 6:58 PM MDT
Nautical Twilight 6:15 AM MDT 7:27 PM MDT
Astronomical Twilight 5:46 AM MDT 7:55 PM MDT
Moon 11:52 PM MDT (10/14) 1:00 PM MDT (10/14)
Length of Visible Light 12h 15m
Length of Day
11h 26m
Waning Gibbous, 60% of the Moon is Illuminated
Oct 14
Waning Gibbous
Oct 15
Last Quarter
Oct 23
New
Oct 30
First Quarter
Nov 6
Full

Hourly Weather History & Observations

Time (MDT) Temp. Dew Point Humidity Pressure Visibility Wind Dir Wind Speed Gust Speed Precip Events Conditions
12:51 AM 57.9 °F 28.9 °F 33% 30.04 in 10.0 mi Calm Calm - N/A   Clear
1:51 AM 53.1 °F 30.0 °F 41% 30.06 in 10.0 mi ENE 3.5 mph - N/A   Clear
2:51 AM 53.1 °F 30.9 °F 43% 30.07 in 10.0 mi Calm Calm - N/A   Clear
3:51 AM 53.1 °F 30.0 °F 41% 30.06 in 10.0 mi NNW 3.5 mph - N/A   Clear
4:51 AM 52.0 °F 30.0 °F 43% 30.06 in 10.0 mi NNE 3.5 mph - N/A   Clear
5:51 AM 48.0 °F 30.9 °F 52% 30.09 in 10.0 mi NE 4.6 mph - N/A   Clear
6:51 AM 46.9 °F 30.9 °F 54% 30.11 in 10.0 mi North 5.8 mph - N/A   Clear
7:51 AM 48.0 °F 32.0 °F 54% 30.13 in 10.0 mi North 8.1 mph - N/A   Clear
8:51 AM 53.6 °F 33.8 °F 47% 30.27 in 10.0 mi North 6.9 mph - N/A   Clear
9:51 AM 60.1 °F 32.0 °F 35% 30.15 in 10.0 mi North 5.8 mph - N/A   Clear
10:51 AM 64.9 °F 30.0 °F 27% 30.13 in 10.0 mi Variable 3.5 mph - N/A   Clear
11:51 AM 66.9 °F 30.0 °F 25% 30.12 in 10.0 mi Calm Calm - N/A   Clear
12:51 PM 71.1 °F 28.9 °F 21% 30.07 in 10.0 mi Calm Calm - N/A   Clear
1:51 PM 73.9 °F 25.0 °F 16% 30.04 in 10.0 mi Calm Calm - N/A   Clear
2:51 PM 75.9 °F 25.0 °F 15% 30.01 in 10.0 mi NW 3.5 mph - N/A   Clear
3:51 PM 77.0 °F 23.0 °F 13% 29.99 in 10.0 mi SE 3.5 mph - N/A   Clear
4:51 PM 77.0 °F 23.0 °F 13% 29.98 in 10.0 mi ENE 3.5 mph - N/A   Clear
5:51 PM 78.1 °F 25.0 °F 14% 29.99 in 10.0 mi Calm Calm - N/A   Clear
6:51 PM 73.0 °F 25.0 °F 17% 30.00 in 10.0 mi NE 6.9 mph - N/A   Clear
7:51 PM 69.1 °F 26.1 °F 20% 30.02 in 10.0 mi NE 4.6 mph - N/A   Clear
8:51 PM 66.2 °F 28.4 °F 24% 30.15 in 10.0 mi North 5.8 mph - N/A   Clear
9:51 PM 64.0 °F 28.9 °F 27% 30.03 in 10.0 mi NNE 6.9 mph - N/A   Clear
10:51 PM 62.1 °F 30.0 °F 30% 30.02 in 10.0 mi North 5.8 mph - N/A   Clear
11:51 PM 60.8 °F 30.2 °F 31% 30.16 in 10.0 mi North 6.9 mph - N/A   Clear